Location: Treviso
(45.6669°N, 12.2430°E)
Time: 07:29:42
(UTC+02:00)

ISS - Pass Details

Date: 22 May 2018
Orbit: 402 x 407 km, 51.6° (Epoch: 24 May)

Event Time Altitude Azimuth Distance (km) Brightness Sun altitude
Rises 04:41:35 0° 291° (WNW) 2,318 -0.3 -8.1°
Reaches altitude 10° 04:43:57 10° 275° (W) 1,455 -1.4 -7.8°
Maximum altitude 04:46:33 22° 222° (SW) 928 -2.6 -7.4°
Drops below altitude 10° 04:49:09 10° 169° (S) 1,448 -1.3 -7.1°
Sets 04:51:29 0° 153° (SSE) 2,303 -0.1 -6.8°
